Location: Moosonee
(51.2731°N, 80.6400°W)
Time: 07:21:55
(UTC-05:00)

ISS - Visible Passes

Search period start: 05 March 2024 00:00
Search period end: 15 March 2024 01:00
Orbit: 414 x 422 km, 51.6° (Epoch: 05 March)

Date Brightness Start Highest point End Pass type
(mag) Time Alt. Az. Time Alt. Az. Time Alt. Az.
05 Mar -0.9 04:02:35 14° ESE 04:02:35 14° ESE 04:03:09 10° ESE visible
05 Mar -2.5 05:35:32 23° SW 05:36:13 25° SSW 05:39:03 10° SSE visible
06 Mar -2.0 04:49:43 23° SSE 04:49:43 23° SSE 04:51:24 10° SE visible
07 Mar -1.5 05:36:57 12° SSW 05:36:57 12° SSW 05:37:54 10° SSW visible
13 Mar -0.9 21:43:26 10° SSW 21:43:28 10° SSW 21:43:28 10° SSW visible
14 Mar -2.2 20:55:38 10° SSW 20:57:52 21° SSE 20:57:52 21° SSE visible
